Voltar ao catálogo

LAGEOS 2

AtivoCiênciaMEO
NORAD 22195·PAYLOAD·🇮🇹 Italy

Lançado Oct 22, 1992 de Cape Canaveral Space Force Station

Loading…

Próximas Passagens (próximas 24 horas)

TLE

AtualizadoSource: CelesTrak SupGP

Época: Sep 14, 2026, 00:00 UTC

1 22195C 92070B   26257.00000000  .00000000  00000+0  00000+0 0  2574
2 22195  52.6439 210.5218 0138088 226.1857 218.8723  6.47293805    14

Acompanhe LAGEOS 2 em tempo real com AllMySat

Download on the App Store